Location: El Portezuelo
(28.4984°N, 16.3589°W)
Time: 09:27:10
(UTC+00:00)

Cosmos 44 - Pass Details

Date: 20 January 2020
Orbit: 595 x 767 km, 65.1° (Epoch: 16 February)

Event Time Altitude Azimuth Distance (km) Brightness Sun altitude
Exits shadow 06:38:06 26° 244° (WSW) 1,242 4.2 -17.6°
Drops below altitude 10° 06:41:42 10° 193° (SSW) 2,034 5.7 -16.8°
Sets 06:44:20 0° 180° (S) 2,973 6.7 -16.2°
